Regional Weather Roundup
Issued by NWS

Home | Current Version | Previous Version | Graphics & Text | Print | Product List | Glossary On
Versions: 1 2 3 4 5 6 7 8 9 10 11 12 13 14 15 16 17 18 19 20 21 22 23 24 25 26 27 28 29 30 31 32 33 34 35 36 37 38 39 40 41 42 43 44 45 46 47 48 49 50
000
ASUS43 KFSD 040810
RWRSD

WEATHER ROUNDUP FOR SOUTH DAKOTA
NATIONAL WEATHER SERVICE SIOUX FALLS SD
300 AM CDT MON MAY 04 2015

NOTE: "FAIR" INDICATES FEW OR NO CLOUDS BELOW 12,000 FEET WITH NO
SIGNIFICANT WEATHER AND/OR OBSTRUCTIONS TO VISIBILITY.


SDZ001>005-009-010-012>017-040900-
NORTHWEST AND NORTH CENTRAL SOUTH DAKOTA

CITY           SKY/WX    TMP DP  RH WIND       PRES   REMARKS
BUFFALO          N/A     44  34  67 E10       30.03F
FAITH            N/A     47  23  38 E9        30.10S
MOBRIDGE       CLEAR     37  24  59 N6        30.09S
$$

SDZ012>016-024>037-041>051-057-063-072>074-040900-
SOUTHWEST AND SOUTH CENTRAL SOUTH DAKOTA

CITY           SKY/WX    TMP DP  RH WIND       PRES   REMARKS
RAPID CTY ARPT CLOUDY    48  35  60 W3        30.11R
PIERRE         MOCLDY    44  24  45 NE5       30.10R
CUSTER         LGT RAIN  40  37  89 NE5       30.14F
ELLSWORTH AFB  CLOUDY    49  33  55 SW6       30.10S
PHILIP         CLOUDY    47  26  44 E6        30.10R
PINE RIDGE     MOCLDY    50  31  48 E10       30.09R
SPEARFISH      CLOUDY    48  37  66 E12       30.10F
WINNER         FAIR      50  27  40 E5        30.11R
$$

SDZ004>011-016>023-039-040-040900-
NORTHEAST SOUTH DAKOTA

CITY           SKY/WX    TMP DP  RH WIND       PRES   REMARKS
ABERDEEN       CLEAR     39  26  59 N3        30.11S
WATERTOWN      CLEAR     38  27  64 N5        30.08S
BROOKINGS      CLEAR     45  28  53 CALM      30.08S
SISSETON         N/A     44  25  47 NW9       30.08R
$$

SDZ017-020-022-023-036>040-048>070-040900-
SOUTHEAST SOUTH DAKOTA

CITY           SKY/WX    TMP DP  RH WIND       PRES   REMARKS
SIOUX FALLS    CLEAR     49  31  49 N5        30.06R
HURON          PTCLDY    41  30  65 NE3       30.09R
CHAMBERLAIN    MOCLDY    49  26  40 NE5       30.10R
MITCHELL       PTCLDY    44  34  67 NW6       30.09R
YANKTON        PTCLDY    52  32  46 N12       30.03S
$$

ABBREVIATIONS USED IN REMARKS
   TC - TEMPERATURE IN CELSIUS
  WCI - WIND CHILL INDEX
   HX - HEAT INDEX
  VSB - VISIBILITY




USA.gov is the U.S. government's official web portal to all federal, state and local government web resources and services.